When you browse on this site, cookies collect data to enhance your experience and personalize the content and advertising you see.
Visit our Privacy Policy to learn more. By continuing to use the site, you agree to this use of cookies and data.

Hourly Weather Caen

Today, 13 July, Monday

Time Temperature Precipitation Wind Pressure Humidity
00:00 +13°C° 0 mm 2 mps 768 mmHg 90%
01:00 +13°C° 0 mm 2 mps 768 mmHg 91%
02:00 +13°C° 0 mm 2 mps 768 mmHg 91%
03:00 +13°C° 0 mm 2 mps 767 mmHg 92%
04:00 +14°C° 0 mm 2 mps 767 mmHg 90%
05:00 +15°C° 0 mm 2 mps 767 mmHg 88%
06:00 +16°C° 0 mm 1 mps 767 mmHg 84%
07:00 +17°C° 0 mm 2 mps 767 mmHg 76%
08:00 +19°C° 0 mm 2 mps 767 mmHg 67%
09:00 +20°C° 0 mm 2 mps 767 mmHg 59%
10:00 +21°C° 0 mm 2 mps 767 mmHg 56%
11:00 +21°C° 0 mm 2 mps 767 mmHg 52%
12:00 +22°C° 0 mm 3 mps 767 mmHg 49%
13:00 +22°C° 0 mm 3 mps 766 mmHg 50%
14:00 +22°C° 0 mm 3 mps 766 mmHg 51%
15:00 +22°C° 0 mm 3 mps 765 mmHg 51%
16:00 +21°C° 0 mm 3 mps 765 mmHg 58%
17:00 +20°C° 0 mm 3 mps 765 mmHg 64%
18:00 +19°C° 0 mm 3 mps 765 mmHg 70%
19:00 +18°C° 0 mm 2 mps 765 mmHg 76%
20:00 +16°C° 0 mm 2 mps 765 mmHg 82%
21:00 +14°C° 0 mm 1 mps 765 mmHg 88%
22:00 +14°C° 0 mm 2 mps 764 mmHg 88%
23:00 +14°C° 0 mm 2 mps 764 mmHg 88%

Tomorrow, 14 July, Tuesday

Time Temperature Precipitation Wind Pressure Humidity
00:00 +13°C° 0 mm 2 mps 764 mmHg 88%
01:00 +13°C° 0.2 mm 2 mps 763 mmHg 87%
02:00 +14°C° 0.2 mm 2 mps 763 mmHg 86%
03:00 +13°C° 0.2 mm 3 mps 762 mmHg 85%
04:00 +13°C° 0.8 mm 3 mps 762 mmHg 88%
05:00 +13°C° 0.8 mm 3 mps 762 mmHg 92%
06:00 +13°C° 0.8 mm 3 mps 762 mmHg 96%
07:00 +14°C° 0.1 mm 3 mps 762 mmHg 95%
08:00 +16°C° 0.1 mm 3 mps 762 mmHg 94%
09:00 +17°C° 0.1 mm 3 mps 762 mmHg 93%
10:00 +18°C° 0.5 mm 3 mps 761 mmHg 91%
11:00 +19°C° 0.5 mm 3 mps 761 mmHg 88%
12:00 +20°C° 0.5 mm 3 mps 761 mmHg 86%
13:00 +20°C° 0.6 mm 4 mps 761 mmHg 83%
14:00 +20°C° 0.6 mm 4 mps 761 mmHg 81%
15:00 +20°C° 0.6 mm 4 mps 760 mmHg 79%
16:00 +19°C° 0.1 mm 4 mps 760 mmHg 79%
17:00 +19°C° 0.1 mm 3 mps 760 mmHg 80%
18:00 +18°C° 0.1 mm 3 mps 760 mmHg 81%
19:00 +17°C° 0 mm 3 mps 761 mmHg 85%
20:00 +16°C° 0 mm 3 mps 761 mmHg 89%
21:00 +15°C° 0 mm 2 mps 761 mmHg 93%
22:00 +14°C° 0 mm 3 mps 761 mmHg 92%
23:00 +14°C° 0 mm 3 mps 761 mmHg 91%

Day after tomorrow, 15 July, Wednesday

Time Temperature Precipitation Wind Pressure Humidity
00:00 +14°C° 0 mm 3 mps 761 mmHg 90%
01:00 +14°C° 0.1 mm 3 mps 761 mmHg 90%
02:00 +13°C° 0.1 mm 3 mps 761 mmHg 90%
03:00 +13°C° 0.1 mm 3 mps 761 mmHg 90%
04:00 +13°C° 0.1 mm 3 mps 761 mmHg 91%
05:00 +13°C° 0.1 mm 3 mps 761 mmHg 91%
06:00 +14°C° 0.1 mm 3 mps 761 mmHg 91%
07:00 +14°C° 0 mm 3 mps 762 mmHg 89%
08:00 +16°C° 0 mm 3 mps 762 mmHg 87%
09:00 +16°C° 0 mm 3 mps 762 mmHg 84%
10:00 +16°C° 0.1 mm 3 mps 762 mmHg 84%
11:00 +17°C° 0.1 mm 3 mps 762 mmHg 83%
12:00 +17°C° 0.1 mm 3 mps 762 mmHg 83%
13:00 +18°C° 0.1 mm 3 mps 762 mmHg 80%
14:00 +18°C° 0.1 mm 3 mps 762 mmHg 77%
15:00 +19°C° 0.1 mm 3 mps 762 mmHg 74%
16:00 +18°C° 0 mm 3 mps 762 mmHg 76%
17:00 +18°C° 0 mm 3 mps 762 mmHg 78%
18:00 +18°C° 0 mm 3 mps 763 mmHg 80%
19:00 +17°C° 0 mm 3 mps 763 mmHg 84%
20:00 +16°C° 0 mm 3 mps 763 mmHg 88%
21:00 +14°C° 0 mm 3 mps 764 mmHg 92%
22:00 +13°C° 0 mm 3 mps 764 mmHg 94%
23:00 +13°C° 0 mm 3 mps 764 mmHg 95%

16 July, Thursday

Time Temperature Precipitation Wind Pressure Humidity
00:00 +13°C° 0 mm 3 mps 764 mmHg 97%
01:00 +13°C° 0 mm 3 mps 764 mmHg 97%
02:00 +13°C° 0 mm 3 mps 763 mmHg 97%
03:00 +13°C° 0 mm 3 mps 763 mmHg 97%
04:00 +14°C° 0 mm 3 mps 763 mmHg 95%
05:00 +14°C° 0 mm 3 mps 764 mmHg 94%
06:00 +16°C° 0 mm 3 mps 764 mmHg 93%
07:00 +17°C° 0 mm 3 mps 764 mmHg 90%
08:00 +17°C° 0 mm 3 mps 764 mmHg 87%
09:00 +18°C° 0 mm 4 mps 764 mmHg 84%
10:00 +19°C° 0.1 mm 4 mps 765 mmHg 80%
11:00 +20°C° 0.1 mm 4 mps 765 mmHg 75%
12:00 +20°C° 0.1 mm 4 mps 765 mmHg 71%
13:00 +20°C° 0 mm 4 mps 764 mmHg 70%
14:00 +20°C° 0 mm 4 mps 764 mmHg 70%
15:00 +21°C° 0 mm 4 mps 764 mmHg 69%
16:00 +20°C° 0 mm 4 mps 764 mmHg 71%
17:00 +20°C° 0 mm 4 mps 764 mmHg 73%
18:00 +19°C° 0 mm 4 mps 765 mmHg 74%
19:00 +18°C° 0 mm 3 mps 765 mmHg 80%
20:00 +17°C° 0 mm 3 mps 765 mmHg 86%
21:00 +15°C° 0 mm 2 mps 765 mmHg 91%
22:00 +15°C° 0 mm 2 mps 765 mmHg 92%
23:00 +15°C° 0 mm 2 mps 765 mmHg 93%

17 July, Friday

Time Temperature Precipitation Wind Pressure Humidity
00:00 +15°C° 0 mm 2 mps 765 mmHg 94%
01:00 +14°C° 0 mm 2 mps 765 mmHg 94%
02:00 +14°C° 0 mm 2 mps 765 mmHg 95%
03:00 +14°C° 0 mm 2 mps 765 mmHg 95%
04:00 +15°C° 0 mm 2 mps 765 mmHg 95%
05:00 +16°C° 0 mm 2 mps 765 mmHg 95%
06:00 +17°C° 0 mm 2 mps 765 mmHg 94%
07:00 +18°C° 0 mm 2 mps 765 mmHg 87%
08:00 +20°C° 0 mm 2 mps 765 mmHg 80%
09:00 +23°C° 0 mm 2 mps 765 mmHg 73%
10:00 +22°C° 0.1 mm 3 mps 765 mmHg 71%
11:00 +24°C° 0.1 mm 3 mps 765 mmHg 70%
12:00 +24°C° 0.1 mm 3 mps 765 mmHg 68%
13:00 +23°C° 0 mm 4 mps 765 mmHg 69%
14:00 +23°C° 0 mm 4 mps 765 mmHg 69%
15:00 +23°C° 0 mm 4 mps 765 mmHg 70%
16:00 +22°C° 0 mm 4 mps 765 mmHg 72%
17:00 +21°C° 0 mm 3 mps 764 mmHg 75%
18:00 +21°C° 0 mm 3 mps 764 mmHg 78%
19:00 +19°C° 0 mm 2 mps 765 mmHg 83%
20:00 +18°C° 0 mm 2 mps 765 mmHg 89%
21:00 +16°C° 0 mm 2 mps 765 mmHg 94%
22:00 +16°C° 0 mm 1 mps 765 mmHg 94%
23:00 +15°C° 0 mm 1 mps 765 mmHg 94%

18 July, Saturday

Time Temperature Precipitation Wind Pressure Humidity
00:00 +15°C° 0 mm 1 mps 765 mmHg 94%
01:00 +15°C° 0 mm 1 mps 765 mmHg 94%
02:00 +14°C° 0 mm 0 mps 764 mmHg 94%
03:00 +13°C° 0 mm 0 mps 764 mmHg 94%
04:00 +14°C° 0 mm 0 mps 764 mmHg 93%
05:00 +15°C° 0 mm 0 mps 764 mmHg 92%
06:00 +16°C° 0 mm 0 mps 764 mmHg 90%
07:00 +17°C° 0 mm 0 mps 764 mmHg 83%
08:00 +19°C° 0 mm 0 mps 764 mmHg 77%
09:00 +21°C° 0 mm 0 mps 764 mmHg 70%
10:00 +24°C° 0 mm 1 mps 763 mmHg 66%
11:00 +25°C° 0 mm 1 mps 763 mmHg 63%
12:00 +26°C° 0 mm 1 mps 763 mmHg 60%
13:00 +26°C° 0 mm 2 mps 762 mmHg 60%
14:00 +26°C° 0 mm 2 mps 762 mmHg 61%
15:00 +26°C° 0 mm 3 mps 762 mmHg 61%
16:00 +25°C° 0 mm 3 mps 761 mmHg 66%
17:00 +24°C° 0 mm 3 mps 761 mmHg 71%
18:00 +22°C° 0 mm 3 mps 761 mmHg 75%
19:00 +20°C° 0 mm 3 mps 761 mmHg 81%
20:00 +18°C° 0 mm 2 mps 761 mmHg 86%
21:00 +17°C° 0 mm 2 mps 762 mmHg 91%
22:00 +18°C° 0 mm 1 mps 762 mmHg 91%
23:00 +18°C° 0 mm 1 mps 761 mmHg 91%
Show more